DW9313 Weather Reports


Display with metric or nautical units.
time (UTC)temp
F
wind
direction
speed
MPH
gust
MPH
rain 1hr
in
rain 24hr
in
rain mn
in
humidity
%
barometer
mb
20260901014739 52 148 0.0 0.0 0.00 0.00 0.00 92 1018.0
20260901014240 52 148 0.0 0.0 0.00 0.00 0.00 92 1018.0
20260901013740 52 69 0.0 0.0 0.00 0.00 0.00 92 1018.0
20260901013240 52 69 0.0 0.0 0.00 0.00 0.00 92 1018.0
20260901012742 52 69 0.0 0.0 0.00 0.00 0.00 91 1018.0
20260901012241 52 69 0.0 0.0 0.00 0.00 0.00 92 1018.0
20260901010740 52 69 0.0 0.0 0.00 0.00 0.00 92 1018.0
20260901005740 52 5 0.0 0.0 0.00 0.00 0.00 91 1018.0
20260901004740 52 102 0.0 0.0 0.00 0.00 0.00 91 1018.0
20260901004241 52 102 0.0 0.0 0.00 0.00 0.00 91 1018.0
20260901003741 52 100 0.0 0.0 0.00 0.00 0.00 91 1018.1
20260901003241 52 99 0.0 0.0 0.00 0.00 0.00 91 1018.1
20260901002742 52 99 0.0 0.0 0.00 0.00 0.00 90 1018.1
20260901002240 52 99 0.0 0.0 0.00 0.00 0.00 90 1018.1
20260901001741 52 99 0.0 0.0 0.00 0.00 0.00 90 1018.1
20260901000741 52 99 0.0 0.0 0.00 0.00 0.00 90 1018.1
20260831235741 52 99 0.0 0.0 0.00 0.00 0.00 90 1018.1
20260831235240 52 99 0.0 0.0 0.00 0.00 0.00 90 1018.1
20260831234241 52 140 0.0 0.0 0.00 0.00 0.00 90 1018.3
20260831233740 52 202 0.0 0.0 0.00 0.00 0.00 90 1018.3
20260831233241 52 142 0.0 0.0 0.00 0.00 0.00 90 1018.3
20260831232741 52 140 0.0 0.0 0.00 0.00 0.00 89 1018.3
20260831232241 53 155 0.0 0.0 0.00 0.00 0.00 89 1018.3
20260831231742 53 180 0.0 0.0 0.00 0.00 0.00 89 1018.3
20260831230805 53 228 0.0 0.0 0.00 0.00 0.00 89 1018.4
20260831225742 53 228 0.0 0.0 0.00 0.00 0.00 88 1018.4
20260831224742 53 228 0.0 0.0 0.00 0.00 0.00 88 1018.4
20260831224241 54 228 0.0 0.0 0.00 0.00 0.00 87 1018.4
20260831223741 54 228 0.0 0.0 0.00 0.00 0.00 87 1018.5
20260831223241 54 228 0.0 0.0 0.00 0.00 0.00 87 1018.5
20260831222743 54 228 0.0 0.0 0.00 0.00 0.00 86 1018.5
20260831221741 55 272 0.0 1.0 0.00 0.00 0.00 85 1018.5
20260831221243 55 272 0.0 0.0 0.00 0.00 0.00 85 1018.4
20260831220742 55 285 0.0 0.0 0.00 0.00 0.00 84 1018.3
20260831220242 56 285 0.0 0.0 0.00 0.00 0.00 84 1018.3
20260831215742 56 285 0.0 0.0 0.00 0.00 0.00 84 1018.4
20260831214742 56 285 0.0 0.0 0.00 0.00 0.00 85 1018.4
20260831214242 56 285 0.0 0.0 0.00 0.00 0.00 85 1018.3
20260831213742 56 285 0.0 0.0 0.00 0.00 0.00 85 1018.2
20260831213242 56 285 0.0 0.0 0.00 0.00 0.00 84 1018.2
20260831212742 57 285 0.0 1.0 0.00 0.00 0.00 84 1018.2
20260831212242 57 285 0.0 1.0 0.00 0.00 0.00 85 1018.1
20260831211742 57 285 0.0 0.0 0.00 0.00 0.00 84 1018.1
20260831211244 57 285 0.0 0.0 0.00 0.00 0.00 84 1018.2
20260831210742 57 284 0.0 0.0 0.00 0.00 0.00 84 1018.1
20260831205742 58 284 0.0 0.0 0.00 0.00 0.00 84 1018.2
20260831205242 58 284 0.0 0.0 0.00 0.00 0.00 83 1018.2
20260831203743 59 298 0.0 1.0 0.00 0.01 0.00 83 1018.1
20260831203242 59 291 0.0 1.0 0.00 0.01 0.00 83 1018.1
20260831202742 59 292 0.0 1.0 0.00 0.01 0.00 83 1018.0
20260831202244 59 292 0.0 0.0 0.00 0.01 0.00 82 1018.0
20260831201742 60 292 0.0 0.0 0.00 0.01 0.00 81 1018.0
20260831201243 60 292 0.0 0.0 0.00 0.01 0.00 81 1018.0
20260831200744 60 292 0.0 0.0 0.00 0.01 0.00 80 1018.0
20260831200243 61 292 0.0 0.0 0.00 0.01 0.00 80 1018.0
20260831195742 61 292 0.0 1.0 0.00 0.01 0.00 80 1017.9
20260831195243 61 292 0.0 1.0 0.00 0.01 0.00 79 1017.9
20260831194744 61 293 0.0 0.0 0.00 0.01 0.00 79 1017.9
20260831194243 62 293 0.0 0.0 0.00 0.01 0.00 79 1017.8
20260831193745 62 293 0.0 0.0 0.00 0.01 0.00 79 1017.8
20260831192743 62 293 0.0 0.0 0.00 0.02 0.00 78 1017.7
20260831192243 62 293 0.0 0.0 0.00 0.02 0.00 78 1017.7
20260831191743 62 293 0.0 1.0 0.00 0.02 0.00 77 1017.6
20260831190744 63 295 0.0 1.0 0.00 0.02 0.00 77 1017.6
20260831190243 63 289 0.0 0.0 0.00 0.02 0.00 76 1017.5
20260831185743 63 301 0.0 2.0 0.00 0.02 0.00 76 1017.5
20260831184745 63 277 1.0 3.0 0.00 0.02 0.00 75 1017.4
20260831184243 63 290 1.0 3.0 0.00 0.02 0.00 74 1017.4
20260831183743 63 284 2.0 3.0 0.00 0.02 0.00 74 1017.5
20260831183244 64 284 1.0 5.0 0.00 0.02 0.00 73 1017.4
20260831182744 64 277 2.0 6.0 0.00 0.02 0.00 72 1017.4
20260831182243 64 271 3.0 7.0 0.00 0.02 0.00 71 1017.4
20260831180744 66 287 4.0 7.0 0.00 0.02 0.00 68 1017.3
20260831180244 66 287 4.0 7.0 0.00 0.02 0.00 68 1017.2
20260831175745 66 295 5.0 10.0 0.00 0.02 0.00 67 1017.1
20260831175243 67 306 5.0 10.0 0.00 0.02 0.00 67 1017.1
20260831174745 67 286 5.0 7.0 0.00 0.02 0.00 68 1017.0
20260831174243 67 279 5.0 10.0 0.00 0.02 0.00 68 1017.0
20260831173744 67 296 6.0 8.0 0.00 0.02 0.00 68 1017.0
20260831173245 67 304 5.0 8.0 0.00 0.02 0.00 68 1017.0
20260831172744 67 282 2.0 6.0 0.00 0.02 0.00 69 1017.0
20260831172244 66 291 2.0 8.0 0.00 0.02 0.00 70 1017.0
20260831171745 66 286 3.0 6.0 0.00 0.03 0.00 70 1017.0
20260831171244 66 284 3.0 6.0 0.00 0.03 0.00 70 1016.9
20260831170244 66 297 3.0 6.0 0.00 0.03 0.00 69 1016.7
20260831165743 66 285 2.0 6.0 0.00 0.04 0.00 69 1016.8
20260831165245 66 296 2.0 6.0 0.00 0.04 0.00 69 1016.7
20260831164744 66 284 2.0 6.0 0.00 0.04 0.00 69 1016.7
20260831164246 66 282 1.0 7.0 0.00 0.04 0.00 69 1016.7
20260831163244 66 274 3.0 6.0 0.00 0.04 0.00 68 1016.6
20260831162746 66 298 3.0 6.0 0.00 0.04 0.00 68 1016.7
20260831162244 66 297 2.0 6.0 0.00 0.04 0.00 68 1016.6
20260831161746 66 290 3.0 7.0 0.00 0.04 0.00 68 1016.6
20260831161244 66 289 3.0 8.0 0.00 0.04 0.00 67 1016.6
20260831160744 66 303 5.0 9.0 0.00 0.04 0.00 67 1016.6
20260831160244 66 299 1.0 6.0 0.00 0.04 0.00 67 1016.6
20260831155745 66 286 3.0 7.0 0.00 0.05 0.00 67 1016.6
20260831154745 66 291 3.0 8.0 0.00 0.06 0.00 66 1016.6
20260831154245 66 319 4.0 7.0 0.00 0.06 0.00 66 1016.5
20260831153744 65 306 6.0 9.0 0.00 0.06 0.00 66 1016.6
20260831153245 65 291 6.0 10.0 0.00 0.06 0.00 65 1016.6
20260831152746 65 310 4.0 7.0 0.00 0.07 0.00 67 1016.5
20260831151744 65 290 3.0 8.0 0.00 0.07 0.00 67 1016.5
20260831151246 65 284 6.0 12.0 0.00 0.07 0.00 66 1016.4
20260831150744 65 301 6.0 12.0 0.00 0.07 0.00 66 1016.4
20260831150244 65 296 6.0 12.0 0.00 0.07 0.00 67 1016.4
20260831145746 65 282 6.0 12.0 0.00 0.07 0.00 66 1016.4
20260831145246 65 293 5.0 9.0 0.00 0.07 0.00 68 1016.4
20260831144747 65 277 4.0 12.0 0.00 0.07 0.00 69 1016.4
20260831143747 65 291 7.0 12.0 0.00 0.07 0.00 69 1016.5
20260831143245 65 307 8.0 14.0 0.00 0.07 0.00 68 1016.3
20260831142746 65 290 7.0 13.0 0.00 0.07 0.00 68 1016.3
20260831142247 66 302 6.0 14.0 0.00 0.07 0.00 66 1016.2
20260831141745 66 290 6.0 10.0 0.00 0.07 0.00 66 1016.1
20260831141245 66 270 5.0 12.0 0.00 0.07 0.00 66 1016.1
20260831140246 66 307 5.0 10.0 0.00 0.07 0.00 64 1016.0
20260831135247 66 294 3.0 9.0 0.00 0.07 0.00 64 1016.0
20260831134748 66 295 6.0 10.0 0.00 0.07 0.00 63 1016.0
20260831133746 66 298 6.0 9.0 0.00 0.07 0.00 64 1016.0
20260831133246 66 280 5.0 12.0 0.00 0.07 0.00 63 1016.0
20260831132746 66 288 6.0 12.0 0.00 0.07 0.00 66 1015.9
20260831132246 66 298 7.0 15.0 0.00 0.07 0.00 64 1015.9
20260831131747 66 298 6.0 8.0 0.00 0.07 0.00 64 1015.9
20260831131246 65 307 6.0 12.0 0.00 0.07 0.00 65 1015.9
20260831125747 65 309 5.0 9.0 0.00 0.07 0.00 64 1015.8
20260831124246 65 305 6.0 14.0 0.00 0.07 0.00 65 1015.6
20260831123746 65 304 8.0 13.0 0.00 0.07 0.00 65 1015.5
20260831123246 64 282 6.0 17.0 0.00 0.07 0.00 65 1015.5
20260831122747 64 290 6.0 13.0 0.00 0.07 0.00 65 1015.5
20260831122248 64 298 6.0 13.0 0.00 0.07 0.00 67 1015.4
20260831121746 64 308 7.0 13.0 0.00 0.07 0.00 67 1015.4
20260831120747 64 278 10.0 18.0 0.00 0.07 0.00 67 1015.3
20260831120246 64 281 5.0 14.0 0.00 0.07 0.00 69 1015.3
20260831115748 64 304 6.0 15.0 0.00 0.07 0.00 68 1015.2
20260831115247 64 294 8.0 14.0 0.00 0.07 0.00 69 1015.2
20260831114746 64 308 7.0 13.0 0.00 0.07 0.00 69 1015.2
20260831114246 64 293 8.0 15.0 0.00 0.07 0.00 70 1015.1
20260831113746 64 291 7.0 13.0 0.00 0.07 0.00 69 1015.0
20260831113247 64 289 4.0 12.0 0.00 0.07 0.00 71 1015.0
20260831112748 63 285 5.0 10.0 0.00 0.07 0.00 68 1015.0
20260831112246 63 287 6.0 14.0 0.00 0.07 0.00 67 1014.8
20260831111747 63 293 6.0 12.0 0.00 0.07 0.00 67 1014.7
20260831111247 63 291 6.0 14.0 0.00 0.07 0.00 66 1014.8
20260831110747 63 284 5.0 8.0 0.00 0.07 0.00 67 1014.7
20260831110247 63 313 7.0 14.0 0.00 0.07 0.00 67 1014.6
20260831105747 62 296 7.0 12.0 0.00 0.07 0.00 68 1014.7
20260831105247 63 302 7.0 15.0 0.00 0.07 0.00 69 1014.6
20260831104747 63 288 6.0 14.0 0.00 0.07 0.00 69 1014.5
20260831104247 62 305 9.0 15.0 0.00 0.07 0.00 69 1014.4
20260831103747 62 289 10.0 16.0 0.00 0.07 0.00 69 1014.2
20260831103248 63 285 8.0 13.0 0.00 0.07 0.00 69 1014.3
20260831102747 63 295 7.0 14.0 0.00 0.07 0.00 71 1014.3
20260831102249 63 315 10.0 16.0 0.00 0.07 0.00 71 1014.2
20260831101748 62 307 7.0 13.0 0.00 0.07 0.00 73 1014.0
20260831101247 62 293 6.0 14.0 0.00 0.07 0.00 73 1014.1
20260831100748 62 295 6.0 13.0 0.00 0.09 0.00 73 1014.1
20260831100249 62 315 5.0 10.0 0.00 0.09 0.00 74 1014.1
20260831095748 62 305 8.0 14.0 0.00 0.10 0.00 73 1014.1
20260831095248 62 298 8.0 15.0 0.00 0.13 0.00 73 1013.9
20260831094747 62 310 7.0 12.0 0.00 0.13 0.00 74 1013.9
20260831093747 62 287 5.0 12.0 0.00 0.13 0.00 76 1013.8
20260831093249 61 289 6.0 12.0 0.00 0.13 0.00 77 1013.8
20260831092248 61 306 6.0 10.0 0.00 0.14 0.00 78 1013.8
20260831091748 61 293 3.0 10.0 0.00 0.14 0.00 79 1013.8
20260831091249 61 298 5.0 8.0 0.00 0.14 0.00 80 1013.7
20260831090748 61 299 6.0 8.0 0.00 0.15 0.00 80 1013.7
20260831090248 60 279 6.0 9.0 0.00 0.15 0.00 80 1013.6
20260831085249 60 311 6.0 14.0 0.00 0.15 0.00 81 1013.4
20260831084748 60 296 7.0 13.0 0.00 0.15 0.00 82 1013.3
20260831084248 60 291 7.0 10.0 0.00 0.15 0.00 82 1013.1
20260831083748 60 297 6.0 13.0 0.00 0.16 0.00 83 1013.0
20260831083248 60 304 7.0 14.0 0.00 0.16 0.00 82 1012.9
20260831082748 60 306 8.0 16.0 0.00 0.16 0.00 83 1012.9
20260831082249 59 292 7.0 13.0 0.00 0.16 0.00 82 1012.9
20260831081749 60 301 5.0 10.0 0.00 0.16 0.00 83 1012.9
20260831080749 59 280 6.0 12.0 0.00 0.16 0.00 83 1012.8
20260831080249 59 276 5.0 10.0 0.00 0.17 0.00 83 1012.7
20260831075250 59 284 6.0 12.0 0.00 0.17 0.00 83 1012.6
20260831074748 59 293 5.0 8.0 0.00 0.19 0.00 84 1012.5
20260831074248 59 294 2.0 6.0 0.00 0.19 0.00 85 1012.4
20260831073249 59 273 2.0 6.0 0.00 0.20 0.00 87 1012.5
20260831072749 58 309 5.0 7.0 0.00 0.20 0.00 87 1012.3
20260831072248 58 305 3.0 9.0 0.00 0.20 0.00 88 1012.1
20260831071749 58 318 5.0 10.0 0.00 0.20 0.00 89 1011.9
20260831070749 57 300 2.0 6.0 0.00 0.20 0.00 92 1011.8
20260831065749 57 288 2.0 6.0 0.00 0.20 0.00 93 1011.6
20260831064749 56 294 2.0 6.0 0.00 0.20 0.00 93 1011.5
20260831064249 57 291 4.0 8.0 0.00 0.20 0.00 93 1011.3
20260831063752 57 312 5.0 9.0 0.00 0.20 0.00 93 1011.2
20260831063253 57 308 6.0 13.0 0.00 0.20 0.00 93 1011.1
20260831062805 57 305 7.0 12.0 0.00 0.20 0.00 92 1011.0
20260831062250 57 310 7.0 14.0 0.00 0.20 0.00 92 1011.0
20260831061755 57 298 7.0 10.0 0.00 0.20 0.00 92 1011.0
20260831061251 57 297 5.0 13.0 0.00 0.20 0.00 91 1011.0
20260831060749 58 303 7.0 15.0 0.00 0.20 0.00 90 1010.9
20260831060251 58 293 5.0 12.0 0.00 0.20 0.00 90 1010.7
20260831055750 58 300 5.0 9.0 0.00 0.20 0.00 91 1010.5
20260831055250 58 291 5.0 14.0 0.00 0.21 0.00 91 1010.4
20260831054249 58 279 3.0 6.0 0.00 0.22 0.00 91 1010.2
20260831053749 58 291 2.0 7.0 0.00 0.22 0.00 91 1010.0
20260831052750 58 314 5.0 9.0 0.00 0.22 0.00 92 1009.6
20260831052251 58 313 4.0 10.0 0.00 0.22 0.00 92 1009.6
20260831051750 58 300 3.0 7.0 0.00 0.23 0.00 92 1009.6
20260831051250 58 290 2.0 8.0 0.00 0.24 0.00 93 1009.6
20260831050751 58 293 2.0 5.0 0.00 0.24 0.00 93 1009.4
20260831045250 58 304 3.0 8.0 0.00 0.25 0.00 93 1009.2
20260831044750 58 302 2.0 7.0 0.00 0.25 0.00 92 1009.3
20260831043252 58 295 4.0 12.0 0.00 0.25 0.00 91 1009.1
20260831042750 59 303 10.0 16.0 0.00 0.25 0.00 91 1009.0
20260831042251 59 309 6.0 13.0 0.00 0.25 0.00 91 1009.0
20260831041750 59 297 4.0 9.0 0.00 0.25 0.00 92 1008.9
20260831041252 59 270 2.0 6.0 0.00 0.25 0.00 92 1008.8
20260831040251 59 282 3.0 6.0 0.00 0.26 0.00 92 1008.6
20260831035751 59 288 2.0 6.0 0.00 0.26 0.00 92 1008.5
20260831035251 59 289 3.0 9.0 0.00 0.26 0.00 92 1008.5
20260831034751 59 298 2.0 7.0 0.00 0.26 0.00 92 1008.4
20260831034250 58 283 2.0 6.0 0.00 0.26 0.00 92 1008.3
20260831033752 58 311 1.0 5.0 0.00 0.26 0.00 93 1008.2
20260831033252 58 279 2.0 5.0 0.00 0.26 0.00 93 1008.1
20260831032751 58 271 0.0 3.0 0.00 0.26 0.00 93 1008.0
20260831032251 58 301 0.0 1.0 0.00 0.26 0.00 93 1008.0
20260831031751 58 273 1.0 3.0 0.00 0.26 0.00 93 1007.8
20260831031251 58 286 0.0 1.0 0.00 0.26 0.00 93 1007.8
20260831030751 58 265 0.0 2.0 0.00 0.26 0.00 93 1007.7
20260831030251 58 292 1.0 3.0 0.00 0.26 0.00 93 1007.6
20260831025751 58 292 1.0 5.0 0.00 0.26 0.00 93 1007.5
20260831025250 58 284 2.0 6.0 0.00 0.28 0.00 93 1007.4
20260831024751 58 298 2.0 5.0 0.00 0.28 0.00 93 1007.4
20260831024252 58 277 2.0 6.0 0.00 0.28 0.00 93 1007.3
20260831023752 58 293 2.0 6.0 0.00 0.28 0.00 92 1007.2
20260831023252 58 272 2.0 5.0 0.00 0.28 0.00 93 1007.1
20260831022752 58 280 3.0 6.0 0.00 0.28 0.00 93 1007.0
20260831022252 58 294 3.0 6.0 0.00 0.28 0.00 93 1007.0
20260831021752 58 273 2.0 5.0 0.00 0.28 0.00 93 1006.8
20260831021253 58 282 2.0 6.0 0.00 0.28 0.00 93 1006.8
20260831020752 58 283 2.0 5.0 0.00 0.28 0.00 93 1006.6
20260831020251 58 283 2.0 5.0 0.00 0.28 0.00 92 1006.6
20260831015752 58 290 2.0 5.0 0.00 0.28 0.00 92 1006.5
20260831015252 58 289 3.0 6.0 0.00 0.28 0.00 92 1006.4
20260831014752 58 286 2.0 6.0 0.00 0.28 0.00 92 1006.4